Weather History for Decatur, AL

Change the Weather History Date:

Sunday, September 8, 2013

  Actual Average Record
Temperature  
Mean Temperature 78 °F -  
Max Temperature 91 °F 86 °F 100 °F (1954)
Min Temperature 64 °F 63 °F 49 °F (1988)
Cooling Degree Days 12    
Growing Degree Days 28 (Base 50)    
Moisture  
Dew Point 66 °F    
Average Humidity 84    
Maximum Humidity 100    
Minimum Humidity 45    
Precipitation  
Precipitation 0.01 in - - ()
Sea Level Pressure  
Sea Level Pressure 30.00 in    
Wind  
Wind Speed 1 mph (West)    
Max Wind Speed 9 mph    
Max Gust Speed -    
Visibility 4 miles    
Events Fog    
Averages and records for this station are not official NWS values.
T = Trace of Precipitation, MM = Missing Value Source: NWS Daily Summary

Daily Weather History Graph

Daily Weather History Graph

Search for Another Location

Airport:

Trip Planner

Search our weather history database for the weather conditions in past years. The results will help you decide how hot, cold, wet, or windy it might be!

Date:

Astronomy

Sep. 08, 2013 Rise Set
Actual Time 6:25 AM CDT 7:04 PM CDT
Civil Twilight 6:00 AM CDT 7:29 PM CDT
Nautical Twilight 5:30 AM CDT 7:59 PM CDT
Astronomical Twilight 4:59 AM CDT 8:30 PM CDT
Moon 9:32 AM CDT (9/8) 8:50 PM CDT (9/8)
Length of Visible Light 13h 28m
Length of Day
12h 38m
Waxing Crescent, 11% of the Moon is Illuminated
Sep 8
Waxing Crescent
Sep 12
First Quarter
Sep 19
Full
Sep 26
Last Quarter
Oct 4
New

Hourly Weather History & Observations

Time (CDT) Temp. Heat Index Dew Point Humidity Pressure Visibility Wind Dir Wind Speed Gust Speed Precip Events Conditions
12:53 AM 66.9 °F - 66.0 °F 97% 30.02 in 4.0 mi Calm Calm - N/A   Clear
1:31 AM 66.2 °F - 66.2 °F 100% 30.03 in 1.5 mi Calm Calm - N/A   Clear
1:41 AM 64.4 °F - 64.4 °F 100% 30.03 in 0.8 mi Calm Calm - N/A   Clear
1:46 AM 66.2 °F - 64.4 °F 94% 30.03 in 2.0 mi Calm Calm - N/A   Clear
1:53 AM 64.9 °F - 64.0 °F 97% 30.01 in 3.0 mi Calm Calm - N/A   Clear
2:53 AM 66.0 °F - 64.9 °F 96% 29.99 in 4.0 mi Calm Calm - N/A   Clear
3:08 AM 66.2 °F - 64.4 °F 94% 30.01 in 1.8 mi Calm Calm - N/A   Clear
3:10 AM 66.2 °F - 64.4 °F 94% 30.01 in 0.5 mi Calm Calm - N/A Fog Fog
3:35 AM 64.4 °F - 62.6 °F 94% 30.01 in 1.2 mi Calm Calm - N/A   Partly Cloudy
3:40 AM 64.4 °F - 62.6 °F 94% 30.01 in 3.0 mi Calm Calm - N/A   Partly Cloudy
3:53 AM 64.9 °F - 64.0 °F 97% 29.99 in 4.0 mi Calm Calm - N/A   Clear
4:53 AM 64.0 °F - 63.0 °F 96% 29.98 in 3.0 mi Calm Calm - N/A   Clear
5:03 AM 64.4 °F - 62.6 °F 94% 30.00 in 0.8 mi Calm Calm - N/A   Clear
5:15 AM 64.4 °F - 62.6 °F 94% 30.00 in 0.2 mi Calm Calm - 0.01 in Fog Fog
5:36 AM 64.4 °F - 62.6 °F 94% 30.00 in 1.5 mi Calm Calm - 0.01 in   Partly Cloudy
5:40 AM 64.4 °F - 62.6 °F 94% 30.01 in 3.0 mi Calm Calm - 0.01 in   Partly Cloudy
5:53 AM 64.0 °F - 63.0 °F 96% 29.99 in 2.5 mi Calm Calm - 0.01 in   Clear
6:02 AM 64.4 °F - 62.6 °F 94% 30.01 in 4.0 mi Calm Calm - N/A   Clear
6:37 AM 64.4 °F - 62.6 °F 94% 30.02 in 2.0 mi Calm Calm - N/A   Clear
6:53 AM 64.0 °F - 63.0 °F 96% 30.01 in 3.0 mi Calm Calm - N/A   Clear
7:19 AM 66.2 °F - 64.4 °F 94% 30.04 in 1.8 mi Calm Calm - N/A   Clear
7:35 AM 69.8 °F - 66.2 °F 88% 30.04 in 2.5 mi Calm Calm - N/A   Clear
7:50 AM 71.6 °F - 68.0 °F 88% 30.04 in 3.0 mi Calm Calm - N/A   Clear
7:53 AM 71.1 °F - 68.0 °F 90% 30.02 in 3.0 mi Calm Calm - N/A   Clear
8:53 AM 75.9 °F - 71.1 °F 85% 30.03 in 6.0 mi Calm Calm - N/A   Haze
9:53 AM 81.0 °F 84.1 °F 69.1 °F 67% 30.03 in 7.0 mi Variable 3.5 mph - N/A   Clear
10:53 AM 84.9 °F 88.2 °F 68.0 °F 57% 30.02 in 8.0 mi West 9.2 mph - N/A   Clear
11:53 AM 87.1 °F 91.3 °F 69.1 °F 55% 30.01 in 8.0 mi WNW 6.9 mph - N/A   Clear
12:53 PM 89.1 °F 93.7 °F 69.1 °F 52% 30.00 in 7.0 mi West 9.2 mph - N/A   Clear
1:53 PM 90.0 °F 94.5 °F 69.1 °F 50% 29.98 in 8.0 mi WSW 4.6 mph - N/A   Partly Cloudy
2:53 PM 88.0 °F 92.1 °F 69.1 °F 53% 29.97 in 8.0 mi Calm Calm - N/A   Scattered Clouds
3:53 PM 91.0 °F 94.3 °F 66.9 °F 45% 29.96 in 9.0 mi Variable 5.8 mph - N/A   Clear
4:53 PM 90.0 °F 92.8 °F 66.9 °F 46% 29.95 in 9.0 mi Calm Calm - N/A   Partly Cloudy
5:53 PM 89.1 °F 92.9 °F 68.0 °F 50% 29.94 in 9.0 mi West 3.5 mph - N/A   Clear
6:53 PM 80.1 °F 83.8 °F 72.0 °F 76% 29.95 in 7.0 mi Calm Calm - N/A   Clear
7:53 PM 75.9 °F - 71.1 °F 85% 29.96 in 8.0 mi Calm Calm - N/A   Clear
8:53 PM 75.0 °F - 70.0 °F 84% 29.97 in 7.0 mi Calm Calm - N/A   Clear
9:53 PM 72.0 °F - 69.1 °F 91% 29.98 in 6.0 mi Calm Calm - N/A   Clear
10:53 PM 71.1 °F - 68.0 °F 90% 29.99 in 5.0 mi Calm Calm - N/A   Clear
11:53 PM 71.1 °F - 69.1 °F 93% 29.99 in 5.0 mi Calm Calm - N/A   Clear